Terminal Aerodrome Forecast
Issued by NWS

Home | Current Version | Previous Version | Text Only | Print | Product List | Glossary On
Versions: 1 2 3 4 5 6 7 8 9 10 11 12 13 14 15 16 17 18 19 20 21 22 23 24 25 26 27 28 29 30 31 32 33 34 35 36 37 38 39
000
FTUS42 KCAE 191700
TAFOGB
TAF
KOGB 191725Z 1918/2018 08007KT P6SM VCSH BKN035
     FM200000 07004KT P6SM VCSH BKN040
     FM200800 06005KT P6SM BKN008
     FM201500 06010KT P6SM BKN035=

USA.gov is the U.S. government's official web portal to all federal, state and local government web resources and services.